Location: St. Louis
(38.6270°N, 90.1994°W)
Time: 11:16:09
(UTC-06:00)

Altair - Pass Details

Date: 06 December 2021
Orbit: 1501 x 1683 km, 47.2° (Epoch: 25 January)

Event Time Altitude Azimuth Distance (km) Brightness Sun altitude
Rises 22:40:13 0° 295° (WNW) 4,645 10.3 -67.8°
Enters shadow 22:41:26 - 292° (WNW) 4,293 10.1 -68.0°
Reaches altitude 10° 22:43:48 10° 284° (WNW) 3,653 - -68.3°
Maximum altitude 22:51:03 27° 231° (SW) 2,555 - -69.3°
Drops below altitude 10° 22:58:21 10° 178° (S) 3,668 - -70.3°
Sets 23:01:59 0° 166° (SSE) 4,666 - -70.7°
